This demonstration page uses our WeatherBlox Daily Observations layout. Learn more.

Hourly Observations for December 21, 2017

Temp ( °F °C ) Dew Point ( °F °C ) Humidity (%) Winds ( mph kmh ) Pressure ( in mb ) Visibility ( mi km ) Precip ( " mm )
12:15 am 00:15 Cloudy with Mist and Fog 42 5.8 42 5.8 100 100 S 10 17 29.74 1007 4 6.437376 0 0
12:35 am 00:35 Cloudy with Mist and Fog 43 6 42 5.8 99 99 S 12 19 29.74 1007 5 8.04672 0 0
12:55 am 00:55 Cloudy with Mist and Fog 43 6 42 5.7 98 98 S 8 13 29.74 1007 5 8.04672 0 0
1:15 am 01:15 Cloudy 43 6.1 42 5.5 96 96 S 7 11 29.74 1007 7 11.265408 0 0
1:35 am 01:35 Cloudy 43 6 42 5.3 95 95 SSE 7 11 29.74 1007 7 11.265408 0 0
1:55 am 01:55 Cloudy 43 6 42 5.5 97 97 Calm 29.77 1008 7 11.265408 0 0
2:15 am 02:15 Cloudy 43 6 41 5.2 95 95 Calm 29.77 1008 7 11.265408 0 0
2:35 am 02:35 Cloudy 42 5.7 41 5.1 96 96 Calm 29.77 1008 7 11.265408 0 0
2:55 am 02:55 Cloudy 42 5.5 41 5 97 97 N 5 7 29.8 1009 7 11.265408 0 0
3:15 am 03:15 Cloudy 42 5.5 41 5 97 97 NE 5 7 29.77 1008 7 11.265408 0 0
3:35 am 03:35 Cloudy 42 5.3 41 4.8 97 97 NE 7 11 29.77 1008 7 11.265408 0 0
3:55 am 03:55 Cloudy 42 5.3 41 4.8 97 97 NNE 8 13 29.77 1008 7 11.265408 0 0
4:15 am 04:15 Cloudy 42 5.5 41 5 97 97 NNE 10 17 29.77 1008 7 11.265408 0 0
4:35 am 04:35 Cloudy 42 5.5 41 5 97 97 NNE 10 17 29.77 1008 7 11.265408 0 0
4:55 am 04:55 Cloudy with Mist and Fog 41 5.2 41 4.9 98 98 NNE 16 26 29.77 1008 5 8.04672 0 0
5:15 am 05:15 Cloudy with Mist and Fog 40 4.2 39 4.1 99 99 NNE 13 20 29.77 1008 3 4.828032 0 0
5:35 am 05:35 Cloudy 38 3.5 37 2.8 95 95 NE 12 19 29.77 1008 7 11.265408 0 0
5:55 am 05:55 Cloudy 38 3.2 37 2.5 95 95 NE 10 17 29.83 1010 7 11.265408 0 0
6:15 am 06:15 Cloudy 37 2.9 36 2.1 95 95 NE 10 17 29.83 1010 7 11.265408 0 0
6:35 am 06:35 Cloudy 37 2.7 36 2 95 95 N 10 17 29.83 1010 7 11.265408 0 0
6:55 am 06:55 Cloudy 33 0.7 32 0.2 97 97 N 18 30 29.88 1012 7 11.265408 0 0
7:15 am 07:15 Cloudy with Mist and Fog 32 -0.2 31 -0.4 99 99 N 22 35 29.88 1012 5 8.04672 0 0
7:35 am 07:35 Cloudy with Mist and Fog 31 -0.6 31 -0.6 100 100 N 21 33 29.88 1012 5 8.04672 0 0
7:55 am 07:55 Cloudy 29 -1.4 29 -1.5 99 99 N 20 31 29.88 1012 7 11.265408 0 0
8:15 am 08:15 Cloudy 28 -2.5 27 -2.7 99 99 N 22 35 29.94 1014 7 11.265408 0 0
8:35 am 08:35 Cloudy 27 -2.8 26 -3.1 98 98 N 22 35 29.97 1015 7 11.265408 0 0
8:55 am 08:55 Cloudy 26 -3.1 26 -3.4 98 98 N 22 35 30 1016 7 11.265408 0 0
9:15 am 09:15 Cloudy with Mist and Fog 26 -3.3 26 -3.5 99 99 N 22 35 30 1016 4 6.437376 0 0
9:35 am 09:35 Cloudy with Mist and Fog 26 -3.6 25 -3.8 99 99 N 24 39 30 1016 3 4.828032 0 0
9:55 am 09:55 Cloudy with Mist and Fog 25 -3.7 25 -4 98 98 N 21 33 30 1016 4 6.437376 0 0
10:15 am 10:15 Cloudy with Mist and Fog 25 -4 24 -4.3 98 98 N 23 37 30.03 1017 5 8.04672 0 0
10:35 am 10:35 Cloudy with Mist and Fog 25 -4.1 24 -4.5 97 97 N 21 33 30.03 1017 4 6.437376 0 0
10:55 am 10:55 Cloudy with Mist and Fog 24 -4.2 24 -4.6 97 97 N 21 33 30.09 1019 3 4.828032 0 0
11:15 am 11:15 Cloudy with Light Snow 25 -4.1 24 -4.5 97 97 N 17 28 30.09 1019 3 4.828032 0 0
11:35 am 11:35 Windy with Snow Likely 25 -4.1 24 -4.5 97 97 N 22 35 30.09 1019 2.5 4.02336 0 0
11:55 am 11:55 Cloudy with Light Snow 25 -4.1 24 -4.5 97 97 N 18 30 30.09 1019 3 4.828032 0 0
12:15 pm 12:15 Cloudy with Mist and Fog 24 -4.2 24 -4.5 98 98 N 20 31 30.09 1019 3 4.828032 0 0
12:35 pm 12:35 Cloudy with Mist and Fog 24 -4.4 24 -4.7 98 98 N 14 22 30.09 1019 3 4.828032 0 0
12:55 pm 12:55 Cloudy with Mist and Fog 24 -4.7 23 -5 98 98 N 16 26 30.09 1019 4 6.437376 0 0
1:15 pm 13:15 Cloudy with Mist and Fog 23 -5 22 -5.3 98 98 N 22 35 30.09 1019 5 8.04672 0 0
1:35 pm 13:35 Cloudy 23 -5.2 22 -5.6 97 97 N 18 30 30.09 1019 10 16.09344 0 0
1:55 pm 13:55 Cloudy 22 -5.5 21 -6 96 96 N 20 31 30.09 1019 10 16.09344 0 0
2:15 pm 14:15 Cloudy 22 -5.6 21 -6.2 96 96 N 16 26 30.12 1020 7 11.265408 0 0
2:35 pm 14:35 Cloudy 20 -6.4 19 -7.1 95 95 N 14 22 30.12 1020 10 16.09344 0 0
2:55 pm 14:55 Cloudy 20 -6.7 19 -7.5 94 94 N 14 22 30.15 1021 10 16.09344 0 0
3:15 pm 15:15 Cloudy 20 -6.9 18 -7.7 94 94 N 16 26 30.15 1021 10 16.09344 0 0
3:35 pm 15:35 Cloudy 19 -7 18 -7.9 93 93 N 18 30 30.18 1022 10 16.09344 0 0
3:55 pm 15:55 Cloudy 19 -7.2 17 -8.3 92 92 N 18 30 30.18 1022 10 16.09344 0 0
4:15 pm 16:15 Cloudy 19 -7.1 18 -8 93 93 N 16 26 30.18 1022 10 16.09344 0 0
4:35 pm 16:35 Cloudy 19 -7.2 17 -8.5 91 91 N 13 20 30.18 1022 10 16.09344 0 0
4:55 pm 16:55 Cloudy 19 -7.4 16 -8.9 89 89 N 13 20 30.18 1022 10 16.09344 0 0
5:15 pm 17:15 Cloudy 19 -7.5 15 -9.2 88 88 N 17 28 30.21 1023 10 16.09344 0 0
5:35 pm 17:35 Cloudy 19 -7.4 16 -8.9 89 89 N 10 17 30.21 1023 10 16.09344 0 0
5:55 pm 17:55 Cloudy 19 -7.3 17 -8.5 91 91 N 15 24 30.21 1023 10 16.09344 0 0
6:15 pm 18:15 Cloudy 19 -7.5 16 -9 89 89 N 16 26 30.24 1024 10 16.09344 0 0
6:35 pm 18:35 Cloudy 19 -7.5 16 -9 89 89 N 14 22 30.24 1024 10 16.09344 0 0
6:55 pm 18:55 Cloudy 19 -7.5 16 -8.9 90 90 N 10 17 30.24 1024 10 16.09344 0 0
7:15 pm 19:15 Cloudy 19 -7.5 16 -9.1 88 88 N 12 19 30.24 1024 10 16.09344 0 0
7:35 pm 19:35 Cloudy 19 -7.5 16 -9.1 88 88 N 15 24 30.24 1024 10 16.09344 0 0
7:55 pm 19:55 Cloudy 19 -7.5 16 -9 89 89 N 14 22 30.24 1024 10 16.09344 0 0
8:15 pm 20:15 Cloudy 19 -7.5 16 -9.1 88 88 N 14 22 30.24 1024 10 16.09344 0 0
8:35 pm 20:35 Cloudy 19 -7.5 16 -9.1 88 88 N 12 19 30.27 1025 10 16.09344 0 0
8:55 pm 20:55 Cloudy 19 -7.5 16 -9 89 89 N 14 22 30.27 1025 10 16.09344 0 0
9:15 pm 21:15 Cloudy 19 -7.5 16 -9.1 88 88 N 12 19 30.27 1025 10 16.09344 0 0
9:35 pm 21:35 Cloudy 19 -7.5 15 -9.2 88 88 N 10 17 30.27 1025 10 16.09344 0 0
9:55 pm 21:55 Cloudy 19 -7.5 15 -9.2 88 88 N 12 19 30.27 1025 10 16.09344 0 0
10:15 pm 22:15 Cloudy 19 -7.5 16 -9 89 89 NNW 13 20 30.27 1025 10 16.09344 0 0
10:35 pm 22:35 Cloudy 19 -7.5 16 -9.1 88 88 NNW 14 22 30.3 1026 10 16.09344 0 0
10:55 pm 22:55 Cloudy 18 -7.6 15 -9.4 87 87 NNW 12 19 30.3 1026 10 16.09344 0 0
11:15 pm 23:15 Cloudy 18 -7.7 15 -9.5 87 87 NNW 12 19 30.3 1026 10 16.09344 0 0
11:35 pm 23:35 Cloudy 18 -7.8 15 -9.5 88 88 NNW 15 24 30.3 1026 10 16.09344 0 0
11:55 pm 23:55 Cloudy 18 -8 15 -9.7 88 88 N 15 24 30.3 1026 10 16.09344 0 0

Powered by AerisWeather